Location: Ar Ranvel
(48.3000°N, 4.8833°W)
Time: 13:10:12
(UTC+00:00)

Cosmos 1025 Rocket - Pass Details

Date: 16 June 2021
Orbit: 593 x 618 km, 82.5° (Epoch: 04 August)

Event Time Altitude Azimuth Distance (km) Brightness Sun altitude
Exits shadow 22:46:51 - 215° (SW) 2,097 5.5 -15.3°
Reaches altitude 10° 22:47:10 10° 216° (SW) 1,978 5.3 -15.3°
Maximum altitude 22:51:16 39° 286° (WNW) 938 4.3 -15.6°
Drops below altitude 10° 22:55:23 10° 355° (N) 1,983 6.9 -15.8°
Sets 22:57:45 0° 4° (N) 2,888 7.8 -16.0°
